This is the latest recevied weather packets stored in our database for station/object KK7KRZ. If no packets are shown the sender has not sent any weather packets the latest 10 day(s).
| Time | Temp. | Humidity | Pressure | Rain* | Wind** | Luminosity | Snow |
|---|---|---|---|---|---|---|---|
| 1777747623 | 16.11° C | 69% | 1015.6 hPa | 0 mm | - | 255 W/m² | - |
| 1777747324 | 16.11° C | 70% | 1015.6 hPa | 0 mm | - | 802 W/m² | - |
| 1777747021 | 16.11° C | 70% | 1015.5 hPa | 0 mm | - | 327 W/m² | - |
| 1777746717 | 15.56° C | 71% | 1015.6 hPa | 0 mm | - | 300 W/m² | - |
| 1777746412 | 15.56° C | 71% | 1015.7 hPa | 0 mm | - | 259 W/m² | - |
| 1777746108 | 15° C | 72% | 1015.7 hPa | 0 mm | - | 277 W/m² | - |
| 1777745806 | 15° C | 73% | 1015.8 hPa | 0 mm | - | 310 W/m² | - |
| 1777745504 | 15° C | 74% | 1015.7 hPa | 0 mm | - | 309 W/m² | - |
| 1777745201 | 15° C | 73% | 1015.4 hPa | 0 mm | - | 199 W/m² | - |
| 1777744898 | 14.44° C | 75% | 1015.5 hPa | 0 mm | - | 302 W/m² | - |
| 1777744597 | 13.89° C | 77% | 1015.5 hPa | 0 mm | - | 569 W/m² | - |
| 1777744293 | 13.33° C | 78% | 1015.4 hPa | 0 mm | - | 178 W/m² | - |
| 1777743991 | 12.78° C | 80% | 1015.5 hPa | 0 mm | - | 318 W/m² | - |
| 1777743687 | 12.78° C | 80% | 1015 hPa | 0 mm | - | 180 W/m² | - |
| 1777743385 | 12.78° C | 80% | 1015.4 hPa | 0 mm | - | 145 W/m² | - |
| 1777743082 | 12.78° C | 79% | 1015.1 hPa | 0 mm | - | 104 W/m² | - |
| 1777742779 | 12.78° C | 79% | 1015.4 hPa | 0 mm | - | 100 W/m² | - |
| 1777742476 | 12.78° C | 79% | 1015.7 hPa | 0 mm | - | 130 W/m² | - |
| 1777742171 | 13.33° C | 78% | 1015.5 hPa | 0 mm | - | 167 W/m² | - |
| 1777741868 | 12.78° C | 79% | 1015.7 hPa | 0 mm | - | 189 W/m² | - |
| 1777741566 | 12.78° C | 79% | 1015.8 hPa | 0 mm | - | 209 W/m² | - |
| 1777741262 | 12.22° C | 81% | 1016.1 hPa | 0 mm | - | 164 W/m² | - |
| 1777740959 | 12.22° C | 81% | 1016.1 hPa | 0 mm | - | 156 W/m² | - |
| 1777740656 | 12.22° C | 82% | 1015.8 hPa | 0 mm | - | 164 W/m² | - |
| 1777740352 | 12.22° C | 81% | 1016 hPa | 0 mm | - | 167 W/m² | - |
* Rain latest hour (hover to see other rain measurements)
** Current wind speed in m/s (hover to see current wind gust speed)